^^

Weather Underground History

Daily Summary for April 16, 2019 Units:  Metric    English   Both
Daily Weekly Monthly Yearly
  High: Low: Average:
Temperature: 16 °C 5 °C 10.9 °C
Dew Point: 8 °C 3 °C 5.5 °C
Humidity: 92% 48% 70%
Wind Speed: 20km/h 1km/h 8.6km/h
Wind Gust: 34km/h - -
Wind- - East
Pressure: 1023.6 hPa 1016.1 hPa -
Precipitation: 0.0 mm    
 
 
Tabular Data for April 16, 2019
Time Temperature Dew Point Pressure Wind Wind Speed Wind Gust Humidity Rainfall Rate (Hourly) solar
00:04 8 °C 5 °C 1023.6 hPa ENE 2 km/h 10 km/h 83% 0.0 mm 0 W/m2
00:09 8 °C 5 °C 1023.5 hPa ENE 3 km/h 10 km/h 84% 0.0 mm 0 W/m2
00:14 8 °C 5 °C 1023.6 hPa ENE 2 km/h 6 km/h 84% 0.0 mm 0 W/m2
00:19 8 °C 6 °C 1023.6 hPa ENE 4 km/h 8 km/h 84% 0.0 mm 0 W/m2
00:24 8 °C 6 °C 1023.5 hPa East 4 km/h 10 km/h 85% 0.0 mm 0 W/m2
00:29 8 °C 6 °C 1023.5 hPa ESE 5 km/h 10 km/h 85% 0.0 mm 0 W/m2
00:34 8 °C 6 °C 1023.5 hPa ESE 4 km/h 10 km/h 86% 0.0 mm 0 W/m2
00:39 8 °C 6 °C 1023.5 hPa East 7 km/h 11 km/h 86% 0.0 mm 0 W/m2
00:44 8 °C 6 °C 1023.5 hPa ESE 6 km/h 11 km/h 86% 0.0 mm 0 W/m2
00:49 8 °C 6 °C 1023.4 hPa ESE 6 km/h 11 km/h 86% 0.0 mm 0 W/m2
00:54 8 °C 6 °C 1023.4 hPa ESE 7 km/h 11 km/h 87% 0.0 mm 0 W/m2
00:59 8 °C 6 °C 1023.4 hPa ESE 8 km/h 13 km/h 87% 0.0 mm 0 W/m2
01:04 8 °C 6 °C 1023.3 hPa East 7 km/h 13 km/h 87% 0.0 mm 0 W/m2
01:09 8 °C 6 °C 1023.3 hPa East 7 km/h 11 km/h 87% 0.0 mm 0 W/m2
01:14 8 °C 6 °C 1023.3 hPa ESE 8 km/h 14 km/h 88% 0.0 mm 0 W/m2
01:19 8 °C 6 °C 1023.2 hPa East 6 km/h 10 km/h 89% 0.0 mm 0 W/m2
01:24 7 °C 6 °C 1023.2 hPa ESE 7 km/h 11 km/h 88% 0.0 mm 0 W/m2
01:29 7 °C 6 °C 1023.2 hPa East 6 km/h 11 km/h 88% 0.0 mm 0 W/m2
01:34 7 °C 6 °C 1023.2 hPa East 4 km/h 10 km/h 88% 0.0 mm 0 W/m2
01:39 7 °C 6 °C 1023.2 hPa East 3 km/h 6 km/h 88% 0.0 mm 0 W/m2
01:44 7 °C 6 °C 1023.2 hPa East 3 km/h 6 km/h 88% 0.0 mm 0 W/m2
01:49 7 °C 6 °C 1023.2 hPa East 2 km/h 6 km/h 88% 0.0 mm 0 W/m2
01:54 7 °C 6 °C 1023.1 hPa East 2 km/h 6 km/h 89% 0.0 mm 0 W/m2
01:59 7 °C 6 °C 1023.0 hPa East 4 km/h 8 km/h 89% 0.0 mm 0 W/m2
02:04 7 °C 5 °C 1022.9 hPa East 5 km/h 11 km/h 89% 0.0 mm 0 W/m2
02:09 7 °C 5 °C 1022.8 hPa East 5 km/h 10 km/h 89% 0.0 mm 0 W/m2
02:14 7 °C 5 °C 1022.7 hPa ESE 6 km/h 10 km/h 89% 0.0 mm 0 W/m2
02:19 7 °C 5 °C 1022.7 hPa ESE 6 km/h 13 km/h 89% 0.0 mm 0 W/m2
02:24 7 °C 5 °C 1022.7 hPa ESE 5 km/h 8 km/h 89% 0.0 mm 0 W/m2
02:29 7 °C 5 °C 1022.7 hPa ESE 6 km/h 10 km/h 89% 0.0 mm 0 W/m2
02:34 7 °C 5 °C 1022.5 hPa ESE 5 km/h 11 km/h 89% 0.0 mm 0 W/m2
02:39 7 °C 5 °C 1022.5 hPa ESE 5 km/h 10 km/h 89% 0.0 mm 0 W/m2
02:44 7 °C 5 °C 1022.5 hPa ESE 7 km/h 11 km/h 90% 0.0 mm 0 W/m2
02:49 7 °C 5 °C 1022.5 hPa ESE 7 km/h 11 km/h 90% 0.0 mm 0 W/m2
02:54 7 °C 5 °C 1022.4 hPa ESE 6 km/h 11 km/h 90% 0.0 mm 0 W/m2
02:59 7 °C 5 °C 1022.4 hPa East 6 km/h 11 km/h 90% 0.0 mm 0 W/m2
03:04 7 °C 5 °C 1022.4 hPa East 4 km/h 8 km/h 90% 0.0 mm 0 W/m2
03:09 6 °C 5 °C 1022.4 hPa East 6 km/h 10 km/h 89% 0.0 mm 0 W/m2
03:14 6 °C 4 °C 1022.4 hPa East 5 km/h 8 km/h 89% 0.0 mm 0 W/m2
03:19 6 °C 4 °C 1022.4 hPa East 4 km/h 8 km/h 89% 0.0 mm 0 W/m2
03:24 6 °C 4 °C 1022.5 hPa East 6 km/h 8 km/h 89% 0.0 mm 0 W/m2
03:29 6 °C 4 °C 1022.5 hPa East 5 km/h 8 km/h 89% 0.0 mm 0 W/m2
03:34 6 °C 4 °C 1022.5 hPa East 4 km/h 11 km/h 90% 0.0 mm 0 W/m2
03:39 6 °C 4 °C 1022.5 hPa East 5 km/h 10 km/h 90% 0.0 mm 0 W/m2
03:44 6 °C 4 °C 1022.5 hPa East 5 km/h 10 km/h 90% 0.0 mm 0 W/m2
03:49 6 °C 4 °C 1022.5 hPa East 4 km/h 8 km/h 90% 0.0 mm 0 W/m2
03:54 6 °C 4 °C 1022.5 hPa East 4 km/h 10 km/h 90% 0.0 mm 0 W/m2
03:59 6 °C 4 °C 1022.5 hPa East 5 km/h 10 km/h 90% 0.0 mm 0 W/m2
04:04 6 °C 4 °C 1022.4 hPa ESE 4 km/h 10 km/h 90% 0.0 mm 0 W/m2
04:09 6 °C 4 °C 1022.3 hPa ESE 4 km/h 10 km/h 90% 0.0 mm 0 W/m2
04:14 6 °C 4 °C 1022.3 hPa ESE 2 km/h 8 km/h 89% 0.0 mm 0 W/m2
04:19 6 °C 4 °C 1022.3 hPa ESE 1 km/h 3 km/h 89% 0.0 mm 0 W/m2
04:24 6 °C 4 °C 1022.3 hPa ESE 1 km/h 6 km/h 89% 0.0 mm 0 W/m2
04:29 6 °C 4 °C 1022.3 hPa ESE 2 km/h 6 km/h 89% 0.0 mm 0 W/m2
04:34 6 °C 4 °C 1022.3 hPa ESE 1 km/h 6 km/h 89% 0.0 mm 0 W/m2
04:39 6 °C 4 °C 1022.3 hPa ESE 2 km/h 8 km/h 89% 0.0 mm 0 W/m2
04:44 6 °C 4 °C 1022.2 hPa ESE 2 km/h 3 km/h 89% 0.0 mm 0 W/m2
04:49 6 °C 4 °C 1022.2 hPa ESE 2 km/h 6 km/h 89% 0.0 mm 0 W/m2
04:54 6 °C 4 °C 1022.1 hPa ESE 2 km/h 3 km/h 89% 0.0 mm 0 W/m2
04:59 6 °C 4 °C 1022.2 hPa ESE 2 km/h 6 km/h 90% 0.0 mm 0 W/m2
05:04 6 °C 4 °C 1022.1 hPa ESE 1 km/h 6 km/h 90% 0.0 mm 0 W/m2
05:09 6 °C 4 °C 1022.1 hPa ESE 1 km/h 3 km/h 90% 0.0 mm 0 W/m2
05:14 6 °C 4 °C 1022.1 hPa ESE 1 km/h 3 km/h 90% 0.0 mm 5 W/m2
05:19 5 °C 4 °C 1022.1 hPa ESE 2 km/h 6 km/h 90% 0.0 mm 7 W/m2
05:24 5 °C 4 °C 1022.1 hPa East 3 km/h 8 km/h 90% 0.0 mm 9 W/m2
05:29 6 °C 4 °C 1022.2 hPa East 1 km/h 8 km/h 90% 0.0 mm 11 W/m2
05:34 6 °C 4 °C 1022.2 hPa East 1 km/h 6 km/h 90% 0.0 mm 12 W/m2
05:39 6 °C 4 °C 1022.2 hPa East 1 km/h 6 km/h 90% 0.0 mm 14 W/m2
05:44 6 °C 4 °C 1022.2 hPa East 1 km/h 8 km/h 90% 0.0 mm 16 W/m2
05:49 6 °C 4 °C 1022.1 hPa East 2 km/h 10 km/h 90% 0.0 mm 18 W/m2
05:54 6 °C 4 °C 1022.1 hPa East 1 km/h 8 km/h 91% 0.0 mm 19 W/m2
05:59 6 °C 4 °C 1022.1 hPa East 1 km/h 6 km/h 91% 0.0 mm 21 W/m2
06:04 6 °C 4 °C 1022.0 hPa East 1 km/h 6 km/h 91% 0.0 mm 23 W/m2
06:09 6 °C 4 °C 1022.0 hPa East 2 km/h 8 km/h 91% 0.0 mm 25 W/m2
06:14 6 °C 4 °C 1022.0 hPa East 2 km/h 8 km/h 91% 0.0 mm 28 W/m2
06:19 6 °C 4 °C 1022.0 hPa East 2 km/h 5 km/h 91% 0.0 mm 28 W/m2
06:24 6 °C 4 °C 1022.0 hPa East 2 km/h 8 km/h 91% 0.0 mm 30 W/m2
06:29 6 °C 4 °C 1022.0 hPa East 3 km/h 10 km/h 91% 0.0 mm 32 W/m2
06:34 6 °C 5 °C 1022.0 hPa ENE 3 km/h 8 km/h 91% 0.0 mm 77 W/m2
06:39 7 °C 5 °C 1022.0 hPa ENE 2 km/h 10 km/h 92% 0.0 mm 142 W/m2
06:44 7 °C 6 °C 1022.0 hPa ENE 2 km/h 10 km/h 92% 0.0 mm 155 W/m2
06:49 7 °C 6 °C 1022.0 hPa ENE 2 km/h 8 km/h 92% 0.0 mm 167 W/m2
06:54 7 °C 6 °C 1022.0 hPa ENE 2 km/h 8 km/h 91% 0.0 mm 179 W/m2
06:59 8 °C 6 °C 1022.0 hPa ENE 2 km/h 6 km/h 90% 0.0 mm 190 W/m2
07:04 8 °C 6 °C 1022.0 hPa ENE 2 km/h 8 km/h 89% 0.0 mm 199 W/m2
07:09 8 °C 7 °C 1022.0 hPa NE 3 km/h 13 km/h 88% 0.0 mm 211 W/m2
07:14 8 °C 7 °C 1022.1 hPa ENE 3 km/h 6 km/h 88% 0.0 mm 223 W/m2
07:19 9 °C 7 °C 1022.1 hPa East 2 km/h 10 km/h 87% 0.0 mm 237 W/m2
07:24 9 °C 7 °C 1022.0 hPa East 4 km/h 10 km/h 86% 0.0 mm 251 W/m2
07:29 9 °C 7 °C 1022.0 hPa East 5 km/h 11 km/h 85% 0.0 mm 269 W/m2
07:34 10 °C 7 °C 1022.0 hPa East 6 km/h 11 km/h 84% 0.0 mm 287 W/m2
07:39 10 °C 7 °C 1021.9 hPa ESE 7 km/h 13 km/h 83% 0.0 mm 302 W/m2
07:44 10 °C 7 °C 1022.0 hPa ESE 8 km/h 18 km/h 82% 0.0 mm 313 W/m2
07:49 11 °C 7 °C 1022.0 hPa East 6 km/h 18 km/h 81% 0.0 mm 329 W/m2
07:54 11 °C 7 °C 1022.0 hPa East 8 km/h 14 km/h 81% 0.0 mm 345 W/m2
07:59 11 °C 7 °C 1022.0 hPa ESE 9 km/h 18 km/h 80% 0.0 mm 366 W/m2
08:04 11 °C 7 °C 1021.9 hPa East 7 km/h 18 km/h 79% 0.0 mm 381 W/m2
08:09 11 °C 7 °C 1021.9 hPa East 9 km/h 18 km/h 79% 0.0 mm 396 W/m2
08:14 11 °C 7 °C 1021.9 hPa ESE 9 km/h 19 km/h 79% 0.0 mm 401 W/m2
08:19 11 °C 8 °C 1021.8 hPa East 9 km/h 18 km/h 79% 0.0 mm 425 W/m2
08:24 11 °C 8 °C 1021.9 hPa ESE 9 km/h 18 km/h 79% 0.0 mm 436 W/m2
08:29 11 °C 8 °C 1021.8 hPa ESE 11 km/h 19 km/h 78% 0.0 mm 455 W/m2
08:34 12 °C 8 °C 1021.8 hPa East 8 km/h 14 km/h 78% 0.0 mm 469 W/m2
08:39 12 °C 8 °C 1021.8 hPa East 9 km/h 18 km/h 77% 0.0 mm 482 W/m2
08:44 12 °C 8 °C 1021.7 hPa ESE 10 km/h 19 km/h 77% 0.0 mm 492 W/m2
08:49 12 °C 8 °C 1021.7 hPa ESE 11 km/h 18 km/h 77% 0.0 mm 503 W/m2
08:54 12 °C 8 °C 1021.6 hPa ESE 10 km/h 19 km/h 77% 0.0 mm 515 W/m2
08:59 12 °C 8 °C 1021.6 hPa ESE 10 km/h 19 km/h 76% 0.0 mm 533 W/m2
09:04 12 °C 8 °C 1021.6 hPa ESE 13 km/h 23 km/h 76% 0.0 mm 543 W/m2
09:09 12 °C 8 °C 1021.5 hPa ESE 13 km/h 24 km/h 75% 0.0 mm 557 W/m2
09:14 12 °C 8 °C 1021.5 hPa ESE 13 km/h 24 km/h 75% 0.0 mm 577 W/m2
09:19 12 °C 8 °C 1021.5 hPa ESE 11 km/h 18 km/h 75% 0.0 mm 584 W/m2
09:24 12 °C 8 °C 1021.5 hPa ESE 9 km/h 18 km/h 75% 0.0 mm 592 W/m2
09:29 12 °C 8 °C 1021.5 hPa ESE 13 km/h 21 km/h 74% 0.0 mm 606 W/m2
09:34 12 °C 8 °C 1021.4 hPa ESE 12 km/h 19 km/h 73% 0.0 mm 621 W/m2
09:39 13 °C 8 °C 1021.4 hPa ESE 10 km/h 18 km/h 74% 0.0 mm 635 W/m2
09:44 13 °C 8 °C 1021.3 hPa East 10 km/h 18 km/h 72% 0.0 mm 656 W/m2
09:49 13 °C 8 °C 1021.2 hPa East 9 km/h 13 km/h 72% 0.0 mm 656 W/m2
09:54 13 °C 8 °C 1021.1 hPa East 8 km/h 14 km/h 72% 0.0 mm 689 W/m2
09:59 13 °C 8 °C 1021.1 hPa ESE 10 km/h 18 km/h 70% 0.0 mm 687 W/m2
10:04 13 °C 8 °C 1021.0 hPa ESE 11 km/h 23 km/h 68% 0.0 mm 675 W/m2
10:09 13 °C 7 °C 1021.1 hPa East 12 km/h 19 km/h 67% 0.0 mm 682 W/m2
10:14 13 °C 7 °C 1021.1 hPa ESE 10 km/h 19 km/h 67% 0.0 mm 712 W/m2
10:19 13 °C 8 °C 1021.0 hPa ESE 10 km/h 19 km/h 68% 0.0 mm 737 W/m2
10:24 13 °C 7 °C 1021.0 hPa ESE 14 km/h 21 km/h 67% 0.0 mm 731 W/m2
10:29 13 °C 7 °C 1021.0 hPa ESE 11 km/h 19 km/h 66% 0.0 mm 751 W/m2
10:34 14 °C 8 °C 1021.0 hPa ESE 12 km/h 23 km/h 67% 0.0 mm 780 W/m2
10:39 13 °C 8 °C 1021.0 hPa East 10 km/h 18 km/h 67% 0.0 mm 784 W/m2
10:44 14 °C 8 °C 1020.9 hPa ESE 10 km/h 21 km/h 68% 0.0 mm 810 W/m2
10:49 14 °C 8 °C 1020.8 hPa ESE 9 km/h 21 km/h 67% 0.0 mm 823 W/m2
10:54 14 °C 8 °C 1020.8 hPa ESE 12 km/h 19 km/h 66% 0.0 mm 840 W/m2
10:59 14 °C 8 °C 1020.8 hPa ESE 13 km/h 21 km/h 65% 0.0 mm 870 W/m2
11:04 14 °C 8 °C 1020.7 hPa ESE 13 km/h 23 km/h 66% 0.0 mm 911 W/m2
11:09 14 °C 8 °C 1020.7 hPa ESE 12 km/h 21 km/h 66% 0.0 mm 988 W/m2
11:14 14 °C 8 °C 1020.7 hPa East 11 km/h 24 km/h 64% 0.0 mm 983 W/m2
11:19 14 °C 8 °C 1020.6 hPa ESE 13 km/h 21 km/h 63% 0.0 mm 928 W/m2
11:24 14 °C 8 °C 1020.5 hPa ESE 12 km/h 21 km/h 63% 0.0 mm 925 W/m2
11:29 14 °C 7 °C 1020.5 hPa ESE 9 km/h 21 km/h 61% 0.0 mm 276 W/m2
11:34 14 °C 7 °C 1020.5 hPa ESE 14 km/h 24 km/h 63% 0.0 mm 937 W/m2
11:39 14 °C 7 °C 1020.5 hPa ESE 11 km/h 24 km/h 62% 0.0 mm 299 W/m2
11:44 14 °C 7 °C 1020.5 hPa ESE 12 km/h 18 km/h 62% 0.0 mm 278 W/m2
11:49 14 °C 7 °C 1020.5 hPa ESE 13 km/h 21 km/h 64% 0.0 mm 1025 W/m2
11:54 14 °C 7 °C 1020.5 hPa ESE 12 km/h 21 km/h 62% 0.0 mm 302 W/m2
11:59 14 °C 7 °C 1020.5 hPa ESE 16 km/h 21 km/h 63% 0.0 mm 981 W/m2
12:04 14 °C 7 °C 1020.4 hPa ESE 12 km/h 21 km/h 62% 0.0 mm 1032 W/m2
12:09 14 °C 7 °C 1020.3 hPa ESE 14 km/h 27 km/h 62% 0.0 mm 1032 W/m2
12:14 14 °C 7 °C 1020.2 hPa ESE 13 km/h 21 km/h 61% 0.0 mm 962 W/m2
12:19 14 °C 7 °C 1020.1 hPa East 11 km/h 19 km/h 59% 0.0 mm 1004 W/m2
12:24 14 °C 7 °C 1020.1 hPa East 13 km/h 21 km/h 59% 0.0 mm 1004 W/m2
12:29 14 °C 7 °C 1020.1 hPa ESE 13 km/h 21 km/h 58% 0.0 mm 976 W/m2
12:34 15 °C 7 °C 1020.1 hPa ESE 16 km/h 29 km/h 59% 0.0 mm 997 W/m2
12:39 15 °C 6 °C 1020.0 hPa ESE 13 km/h 29 km/h 56% 0.0 mm 997 W/m2
12:44 14 °C 6 °C 1020.0 hPa ESE 12 km/h 23 km/h 57% 0.0 mm 954 W/m2
12:49 15 °C 7 °C 1019.9 hPa ESE 16 km/h 29 km/h 58% 0.0 mm 954 W/m2
12:54 15 °C 7 °C 1020.0 hPa ESE 17 km/h 29 km/h 59% 0.0 mm 976 W/m2
12:59 15 °C 7 °C 1019.9 hPa ESE 14 km/h 23 km/h 59% 0.0 mm 1018 W/m2
13:04 15 °C 7 °C 1019.8 hPa ESE 16 km/h 24 km/h 57% 0.0 mm 343 W/m2
13:09 14 °C 7 °C 1019.8 hPa ESE 11 km/h 23 km/h 58% 0.0 mm 408 W/m2
13:14 14 °C 7 °C 1019.7 hPa ESE 13 km/h 21 km/h 58% 0.0 mm 271 W/m2
13:19 14 °C 7 °C 1019.7 hPa ESE 11 km/h 19 km/h 58% 0.0 mm 1056 W/m2
13:24 15 °C 7 °C 1019.6 hPa ESE 13 km/h 19 km/h 59% 0.0 mm 1051 W/m2
13:29 15 °C 7 °C 1019.6 hPa ESE 15 km/h 26 km/h 57% 0.0 mm 1023 W/m2
13:34 15 °C 6 °C 1019.6 hPa ESE 12 km/h 23 km/h 55% 0.0 mm 1011 W/m2
13:39 15 °C 7 °C 1019.5 hPa ESE 10 km/h 21 km/h 56% 0.0 mm 364 W/m2
13:44 15 °C 7 °C 1019.4 hPa East 11 km/h 21 km/h 57% 0.0 mm 364 W/m2
13:49 15 °C 6 °C 1019.4 hPa ESE 12 km/h 26 km/h 57% 0.0 mm 283 W/m2
13:54 14 °C 7 °C 1019.3 hPa ESE 14 km/h 24 km/h 59% 0.0 mm 1037 W/m2
13:59 14 °C 7 °C 1019.2 hPa ESE 13 km/h 24 km/h 58% 0.0 mm 239 W/m2
14:04 14 °C 7 °C 1019.1 hPa ESE 13 km/h 21 km/h 60% 0.0 mm 962 W/m2
14:09 14 °C 7 °C 1019.1 hPa ESE 11 km/h 18 km/h 58% 0.0 mm 376 W/m2
14:14 15 °C 7 °C 1019.1 hPa ESE 15 km/h 21 km/h 60% 0.0 mm 336 W/m2
14:19 15 °C 7 °C 1018.9 hPa East 13 km/h 24 km/h 58% 0.0 mm 352 W/m2
14:24 15 °C 7 °C 1018.9 hPa East 11 km/h 24 km/h 57% 0.0 mm 348 W/m2
14:29 15 °C 7 °C 1018.9 hPa East 13 km/h 24 km/h 57% 0.0 mm 318 W/m2
14:34 15 °C 7 °C 1018.8 hPa ESE 10 km/h 19 km/h 59% 0.0 mm 1039 W/m2
14:39 15 °C 7 °C 1018.8 hPa East 14 km/h 26 km/h 60% 0.0 mm 1039 W/m2
14:44 15 °C 7 °C 1018.8 hPa ESE 13 km/h 26 km/h 57% 0.0 mm 207 W/m2
14:49 15 °C 7 °C 1018.8 hPa ESE 15 km/h 24 km/h 57% 0.0 mm 346 W/m2
14:54 14 °C 7 °C 1018.8 hPa ESE 14 km/h 23 km/h 58% 0.0 mm 346 W/m2
14:59 14 °C 6 °C 1018.7 hPa ESE 13 km/h 23 km/h 58% 0.0 mm 241 W/m2
15:04 14 °C 6 °C 1018.7 hPa ESE 15 km/h 26 km/h 58% 0.0 mm 267 W/m2
15:09 14 °C 6 °C 1018.6 hPa ESE 13 km/h 26 km/h 58% 0.0 mm 921 W/m2
15:14 14 °C 6 °C 1018.6 hPa ESE 13 km/h 26 km/h 57% 0.0 mm 912 W/m2
15:19 14 °C 6 °C 1018.5 hPa ESE 13 km/h 23 km/h 55% 0.0 mm 258 W/m2
15:24 14 °C 6 °C 1018.5 hPa East 11 km/h 23 km/h 56% 0.0 mm 889 W/m2
15:29 15 °C 6 °C 1018.5 hPa ESE 14 km/h 23 km/h 54% 0.0 mm 225 W/m2
15:34 15 °C 6 °C 1018.4 hPa East 15 km/h 23 km/h 54% 0.0 mm 814 W/m2
15:39 15 °C 6 °C 1018.3 hPa ESE 14 km/h 24 km/h 54% 0.0 mm 837 W/m2
15:44 15 °C 6 °C 1018.2 hPa ESE 17 km/h 26 km/h 52% 0.0 mm 849 W/m2
15:49 16 °C 5 °C 1018.2 hPa ESE 15 km/h 24 km/h 50% 0.0 mm 847 W/m2
15:54 15 °C 5 °C 1018.1 hPa ESE 15 km/h 29 km/h 51% 0.0 mm 199 W/m2
15:59 15 °C 6 °C 1018.1 hPa ESE 17 km/h 29 km/h 52% 0.0 mm 795 W/m2
16:04 15 °C 5 °C 1018.1 hPa ESE 16 km/h 29 km/h 50% 0.0 mm 833 W/m2
16:09 16 °C 6 °C 1018.1 hPa ESE 17 km/h 27 km/h 51% 0.0 mm 817 W/m2
16:14 15 °C 5 °C 1018.0 hPa East 13 km/h 24 km/h 51% 0.0 mm 204 W/m2
16:19 15 °C 5 °C 1018.0 hPa ESE 14 km/h 24 km/h 52% 0.0 mm 765 W/m2
16:24 15 °C 6 °C 1018.0 hPa ESE 15 km/h 24 km/h 55% 0.0 mm 765 W/m2
16:29 15 °C 5 °C 1018.0 hPa ESE 18 km/h 31 km/h 51% 0.0 mm 765 W/m2
16:34 15 °C 5 °C 1018.0 hPa East 15 km/h 31 km/h 51% 0.0 mm 204 W/m2
16:39 14 °C 5 °C 1017.9 hPa East 15 km/h 26 km/h 52% 0.0 mm 621 W/m2
16:44 14 °C 5 °C 1017.9 hPa ESE 16 km/h 29 km/h 53% 0.0 mm 615 W/m2
16:49 15 °C 6 °C 1018.0 hPa ESE 15 km/h 24 km/h 54% 0.0 mm 585 W/m2
16:54 15 °C 6 °C 1018.0 hPa ESE 18 km/h 27 km/h 51% 0.0 mm 596 W/m2
16:59 15 °C 5 °C 1017.9 hPa ESE 16 km/h 31 km/h 50% 0.0 mm 591 W/m2
17:04 15 °C 5 °C 1018.0 hPa ESE 17 km/h 31 km/h 51% 0.0 mm 578 W/m2
17:09 15 °C 5 °C 1017.9 hPa ESE 16 km/h 29 km/h 51% 0.0 mm 526 W/m2
17:14 15 °C 5 °C 1017.9 hPa ESE 15 km/h 27 km/h 52% 0.0 mm 512 W/m2
17:19 15 °C 6 °C 1017.9 hPa ESE 17 km/h 32 km/h 53% 0.0 mm 513 W/m2
17:24 15 °C 5 °C 1017.9 hPa ESE 20 km/h 34 km/h 51% 0.0 mm 485 W/m2
17:29 15 °C 5 °C 1017.9 hPa ESE 17 km/h 26 km/h 52% 0.0 mm 462 W/m2
17:34 14 °C 4 °C 1017.9 hPa ESE 20 km/h 31 km/h 51% 0.0 mm 452 W/m2
17:39 14 °C 5 °C 1017.9 hPa ESE 15 km/h 29 km/h 51% 0.0 mm 445 W/m2
17:44 14 °C 5 °C 1017.8 hPa ESE 14 km/h 24 km/h 52% 0.0 mm 427 W/m2
17:49 14 °C 5 °C 1017.8 hPa ESE 15 km/h 23 km/h 52% 0.0 mm 415 W/m2
17:54 14 °C 4 °C 1017.8 hPa East 16 km/h 26 km/h 51% 0.0 mm 397 W/m2
17:59 14 °C 5 °C 1017.8 hPa ESE 19 km/h 31 km/h 51% 0.0 mm 387 W/m2
18:04 14 °C 4 °C 1017.8 hPa ESE 18 km/h 31 km/h 51% 0.0 mm 371 W/m2
18:09 14 °C 4 °C 1017.6 hPa ESE 18 km/h 29 km/h 52% 0.0 mm 367 W/m2
18:14 14 °C 4 °C 1017.7 hPa ESE 16 km/h 29 km/h 51% 0.0 mm 364 W/m2
18:19 14 °C 4 °C 1017.7 hPa ESE 16 km/h 31 km/h 51% 0.0 mm 320 W/m2
18:24 14 °C 4 °C 1017.7 hPa ESE 14 km/h 24 km/h 52% 0.0 mm 306 W/m2
18:29 14 °C 4 °C 1017.6 hPa ESE 13 km/h 26 km/h 53% 0.0 mm 308 W/m2
18:34 14 °C 4 °C 1017.6 hPa ESE 15 km/h 26 km/h 51% 0.0 mm 302 W/m2
18:39 14 °C 4 °C 1017.6 hPa ESE 17 km/h 27 km/h 52% 0.0 mm 302 W/m2
18:44 14 °C 3 °C 1017.6 hPa ESE 17 km/h 32 km/h 49% 0.0 mm 348 W/m2
18:49 14 °C 3 °C 1017.6 hPa ESE 15 km/h 26 km/h 48% 0.0 mm 362 W/m2
18:54 14 °C 3 °C 1017.6 hPa East 11 km/h 21 km/h 50% 0.0 mm 199 W/m2
18:59 13 °C 3 °C 1017.7 hPa ESE 12 km/h 24 km/h 49% 0.0 mm 209 W/m2
19:04 13 °C 3 °C 1017.7 hPa East 11 km/h 19 km/h 51% 0.0 mm 257 W/m2
19:09 13 °C 3 °C 1017.7 hPa East 11 km/h 23 km/h 51% 0.0 mm 121 W/m2
19:14 13 °C 3 °C 1017.7 hPa East 11 km/h 21 km/h 51% 0.0 mm 104 W/m2
19:19 13 °C 3 °C 1017.6 hPa ESE 7 km/h 18 km/h 53% 0.0 mm 63 W/m2
19:24 12 °C 3 °C 1017.6 hPa East 5 km/h 11 km/h 54% 0.0 mm 49 W/m2
19:29 12 °C 3 °C 1017.6 hPa East 6 km/h 18 km/h 55% 0.0 mm 160 W/m2
19:34 12 °C 4 °C 1017.5 hPa East 7 km/h 13 km/h 56% 0.0 mm 167 W/m2
19:39 12 °C 4 °C 1017.5 hPa East 8 km/h 13 km/h 56% 0.0 mm 144 W/m2
19:44 12 °C 4 °C 1017.4 hPa East 9 km/h 18 km/h 55% 0.0 mm 93 W/m2
19:49 12 °C 3 °C 1017.4 hPa ESE 10 km/h 23 km/h 54% 0.0 mm 74 W/m2
19:54 12 °C 3 °C 1017.4 hPa East 9 km/h 23 km/h 54% 0.0 mm 49 W/m2
19:59 12 °C 3 °C 1017.4 hPa East 12 km/h 26 km/h 52% 0.0 mm 35 W/m2
20:04 12 °C 3 °C 1017.5 hPa East 11 km/h 26 km/h 53% 0.0 mm 30 W/m2
20:09 12 °C 3 °C 1017.5 hPa ESE 10 km/h 19 km/h 54% 0.0 mm 25 W/m2
20:14 12 °C 3 °C 1017.5 hPa East 10 km/h 19 km/h 56% 0.0 mm 18 W/m2
20:19 12 °C 3 °C 1017.5 hPa East 10 km/h 19 km/h 57% 0.0 mm 12 W/m2
20:24 12 °C 3 °C 1017.4 hPa East 10 km/h 19 km/h 58% 0.0 mm 9 W/m2
20:29 11 °C 4 °C 1017.4 hPa East 7 km/h 19 km/h 59% 0.0 mm 7 W/m2
20:34 11 °C 3 °C 1017.4 hPa East 7 km/h 14 km/h 59% 0.0 mm 5 W/m2
20:39 11 °C 3 °C 1017.4 hPa East 7 km/h 13 km/h 59% 0.0 mm 5 W/m2
20:44 11 °C 4 °C 1017.4 hPa ESE 5 km/h 11 km/h 60% 0.0 mm 5 W/m2
20:49 11 °C 4 °C 1017.3 hPa East 6 km/h 24 km/h 60% 0.0 mm 0 W/m2
20:54 11 °C 4 °C 1017.3 hPa East 6 km/h 24 km/h 61% 0.0 mm 0 W/m2
20:59 11 °C 4 °C 1017.3 hPa East 4 km/h 18 km/h 61% 0.0 mm 0 W/m2
21:04 11 °C 3 °C 1017.4 hPa East 7 km/h 13 km/h 60% 0.0 mm 0 W/m2
21:09 11 °C 3 °C 1017.3 hPa East 7 km/h 13 km/h 60% 0.0 mm 0 W/m2
21:14 11 °C 3 °C 1017.3 hPa East 7 km/h 13 km/h 60% 0.0 mm 0 W/m2
21:19 11 °C 3 °C 1017.2 hPa East 6 km/h 13 km/h 60% 0.0 mm 0 W/m2
21:24 11 °C 3 °C 1017.2 hPa ENE 4 km/h 14 km/h 61% 0.0 mm 0 W/m2
21:29 11 °C 3 °C 1017.2 hPa ENE 4 km/h 14 km/h 61% 0.0 mm 0 W/m2
21:34 11 °C 3 °C 1017.2 hPa ENE 5 km/h 11 km/h 61% 0.0 mm 0 W/m2
21:39 11 °C 3 °C 1017.1 hPa East 5 km/h 10 km/h 61% 0.0 mm 0 W/m2
21:44 11 °C 3 °C 1017.1 hPa East 4 km/h 8 km/h 62% 0.0 mm 0 W/m2
21:49 11 °C 4 °C 1017.1 hPa East 5 km/h 10 km/h 63% 0.0 mm 0 W/m2
21:54 11 °C 4 °C 1017.1 hPa ENE 5 km/h 11 km/h 63% 0.0 mm 0 W/m2
21:59 11 °C 4 °C 1017.0 hPa ENE 3 km/h 10 km/h 63% 0.0 mm 0 W/m2
22:04 11 °C 4 °C 1017.0 hPa ENE 4 km/h 10 km/h 64% 0.0 mm 0 W/m2
22:09 11 °C 4 °C 1017.0 hPa ENE 5 km/h 11 km/h 64% 0.0 mm 0 W/m2
22:14 11 °C 4 °C 1016.9 hPa ENE 3 km/h 11 km/h 64% 0.0 mm 0 W/m2
22:19 10 °C 4 °C 1016.9 hPa NE 3 km/h 11 km/h 65% 0.0 mm 0 W/m2
22:24 10 °C 4 °C 1016.9 hPa ENE 4 km/h 11 km/h 65% 0.0 mm 0 W/m2
22:29 10 °C 4 °C 1016.8 hPa ENE 4 km/h 10 km/h 66% 0.0 mm 0 W/m2
22:34 10 °C 4 °C 1016.8 hPa East 3 km/h 11 km/h 67% 0.0 mm 0 W/m2
22:39 10 °C 4 °C 1016.8 hPa East 4 km/h 10 km/h 68% 0.0 mm 0 W/m2
22:44 10 °C 4 °C 1016.7 hPa ENE 4 km/h 13 km/h 69% 0.0 mm 0 W/m2
22:49 9 °C 4 °C 1016.7 hPa ENE 4 km/h 13 km/h 70% 0.0 mm 0 W/m2
22:54 9 °C 4 °C 1016.7 hPa NE 5 km/h 11 km/h 71% 0.0 mm 0 W/m2
22:59 9 °C 4 °C 1016.6 hPa East 5 km/h 13 km/h 71% 0.0 mm 0 W/m2
23:04 9 °C 4 °C 1016.6 hPa ENE 6 km/h 13 km/h 72% 0.0 mm 0 W/m2
23:09 9 °C 5 °C 1016.6 hPa ENE 4 km/h 11 km/h 73% 0.0 mm 0 W/m2
23:14 9 °C 5 °C 1016.5 hPa East 5 km/h 8 km/h 73% 0.0 mm 0 W/m2
23:19 9 °C 5 °C 1016.4 hPa ENE 5 km/h 13 km/h 74% 0.0 mm 0 W/m2
23:24 9 °C 5 °C 1016.5 hPa East 6 km/h 13 km/h 75% 0.0 mm 0 W/m2
23:29 9 °C 5 °C 1016.5 hPa ENE 4 km/h 13 km/h 76% 0.0 mm 0 W/m2
23:34 9 °C 5 °C 1016.4 hPa ENE 5 km/h 13 km/h 76% 0.0 mm 0 W/m2
23:39 9 °C 5 °C 1016.4 hPa ENE 2 km/h 10 km/h 77% 0.0 mm 0 W/m2
23:44 9 °C 5 °C 1016.3 hPa East 4 km/h 11 km/h 78% 0.0 mm 0 W/m2
23:49 8 °C 5 °C 1016.2 hPa ENE 6 km/h 18 km/h 78% 0.0 mm 0 W/m2
23:54 8 °C 6 °C 1016.1 hPa East 7 km/h 18 km/h 80% 0.0 mm 0 W/m2
23:59 8 °C 6 °C 1016.1 hPa ENE 5 km/h 13 km/h 81% 0.0 mm 0 W/m2
Compliments of Weather Underground - 4.25 mb